Location: Jeseník
(50.2246°N, 17.1980°E)
Time: 15:45:42
(UTC+01:00)

BlueWalker 3 - Visible Passes

Search period start: 27 February 2024 00:00
Search period end: 08 March 2024 00:00
Orbit: 486 x 500 km, 53.2° (Epoch: 26 February)

Date Brightness Start Highest point End Pass type
(mag) Time Alt. Az. Time Alt. Az. Time Alt. Az.
27 Feb 2.2 18:35:09 10° WNW 18:38:52 54° N 18:41:20 20° ENE visible
27 Feb 3.5 20:13:32 10° WNW 20:15:48 34° WNW 20:15:48 34° WNW visible
28 Feb 2.3 18:11:17 10° WNW 18:15:01 54° N 18:18:31 11° E visible
28 Feb 2.2 19:49:40 10° WNW 19:52:59 63° W 19:52:59 63° W visible
29 Feb 1.9 19:25:48 10° WNW 19:29:35 75° SSW 19:30:12 58° SE visible
01 Mar 1.9 19:01:55 10° WNW 19:05:42 77° SSW 19:07:26 30° SE visible
01 Mar 4.6 20:40:48 10° W 20:41:55 15° WSW 20:41:55 15° WSW visible
02 Mar 1.9 18:38:00 10° WNW 18:41:47 79° SSW 18:44:44 16° ESE visible
02 Mar 4.1 20:16:52 10° W 20:19:13 19° SW 20:19:13 19° SW visible
03 Mar 2.0 18:14:04 10° WNW 18:17:52 80° SSW 18:21:38 10° ESE visible
03 Mar 3.9 19:52:54 10° W 19:55:43 20° SW 19:56:35 19° SSW visible
04 Mar 4.1 19:28:55 10° W 19:31:47 21° SW 19:34:01 13° S visible
05 Mar 4.1 19:04:56 10° W 19:07:51 21° SW 19:10:44 10° S visible
06 Mar 4.1 18:40:55 10° W 18:43:52 22° SW 18:46:50 10° S visible
07 Mar 4.2 18:16:53 10° W 18:19:53 23° SW 18:22:53 10° S visible
